GW3894 Weather Reports


time (UTC)temp
C
wind
direction
speed
KPH
gust
KPH
rain 1hr
cm
rain 24hr
cm
rain mn
cm
humidity
%
barometer
mb
20260505124830 9 241 3.2 8.0 0.33 0.64 0.64 87 1007.5
20260505124331 9 319 1.6 6.4 0.33 0.61 0.61 87 1008.6
20260505123829 10 290 1.6 6.4 0.33 0.61 0.61 87 1008.9
20260505123327 10 293 1.6 8.0 0.36 0.58 0.58 87 1009.1
20260505123318 10 279 1.6 8.0 0.46 0.56 0.56 87 1009.1
20260505122325 10 296 1.6 6.4 0.41 0.51 0.51 87 1009.4
20260505121825 10 216 1.6 3.2 0.38 0.48 0.48 87 1009.5
20260505121325 10 213 1.6 4.8 0.36 0.46 0.46 86 1009.4
20260505120827 10 342 1.6 12.9 0.36 0.46 0.46 86 1009.2
20260505120321 10 78 3.2 12.9 0.33 0.43 0.43 86 1008.9
20260505115815 10 0 3.2 12.9 0.28 0.38 0.38 85 1008.3
20260505115309 10 0 3.2 8.0 0.23 0.33 0.33 85 1009.3
20260505114802 10 0 4.8 9.7 0.20 0.30 0.30 85 1009.2
20260505114256 10 0 6.4 16.1 0.18 0.28 0.28 84 1009.9
20260505113752 10 0 4.8 16.1 0.20 0.28 0.28 82 1009.2
20260505113251 11 0 3.2 12.9 0.15 0.23 0.25 81 1008.5
20260505112752 11 0 3.2 17.7 0.08 0.10 0.10 80 1008.2
20260505112529 11 0 4.8 17.7 0.08 0.10 0.10 79 1008.6
20260505111753 11 0 3.2 17.7 0.08 0.10 0.10 80 1008.4
20260505111512 11 0 3.2 17.7 0.08 0.10 0.10 80 1008.1
20260505110750 11 0 3.2 9.7 0.08 0.10 0.10 81 1007.9
20260505110250 11 329 1.6 6.4 0.08 0.10 0.10 80 1007.7
20260505101745 13 223 4.8 12.9 0.03 0.03 0.03 73 1007.1
20260505101245 13 55 4.8 14.5 0.03 0.03 0.03 75 1007.1
20260505100746 13 314 4.8 14.5 0.03 0.03 0.03 80 1007.0
20260505100247 13 298 3.2 12.9 0.03 0.03 0.03 81 1006.9
20260505095745 13 339 3.2 12.9 0.03 0.03 0.03 81 1006.8
20260505095247 14 302 3.2 12.9 0.03 0.03 0.03 83 1006.7
20260505095013 14 271 3.2 16.1 0.03 0.03 0.03 83 1006.9
20260505094247 15 338 3.2 16.1 0.03 0.03 0.03 84 1006.6
20260505093745 15 339 3.2 11.3 0.03 0.03 0.03 84 1006.3
20260505093245 15 247 3.2 14.5 0.03 0.03 0.03 84 1006.2
20260505092743 15 82 3.2 17.7 0.03 0.03 0.03 83 1006.4
20260505092243 16 48 4.8 17.7 0.03 0.03 0.03 81 1006.3
20260505091744 16 329 4.8 24.1 0.00 0.00 0.00 81 1006.2
20260505091245 16 222 3.2 24.1 0.00 0.00 0.00 81 1006.3
20260505090744 16 287 1.6 9.7 0.00 0.00 0.00 81 1006.0
20260505090237 16 269 1.6 6.4 0.00 0.00 0.00 81 1005.8
20260505085959 16 238 1.6 6.4 0.00 0.00 0.00 80 1005.6
20260505085235 16 260 1.6 3.2 0.00 0.00 0.00 80 1005.4
20260505084736 16 260 1.6 3.2 0.00 0.00 0.00 80 1005.4
20260505084452 17 53 1.6 3.2 0.00 0.00 0.00 80 1005.1
20260505083733 17 53 1.6 3.2 0.00 0.00 0.00 79 1004.9
20260505083234 17 53 0.0 1.6 0.00 0.00 0.00 77 1004.6
20260505082957 17 53 0.0 1.6 0.00 0.00 0.00 77 1004.5
20260505082232 17 53 0.0 1.6 0.00 0.00 0.00 75 1004.6
20260505081947 17 53 0.0 3.2 0.00 0.00 0.00 73 1004.7
20260505081228 17 53 0.0 3.2 0.00 0.00 0.00 71 1004.8
20260505080945 17 85 0.0 3.2 0.00 0.00 0.00 70 1004.5
20260505080224 17 45 1.6 3.2 0.00 0.00 0.00 70 1004.4
20260505075723 17 119 1.6 3.2 0.00 0.00 0.00 70 1004.8
20260505075223 17 88 1.6 3.2 0.00 0.00 0.00 70 1004.7
20260505074722 17 63 0.0 3.2 0.00 0.00 0.00 69 1004.9
20260505074221 17 63 0.0 1.6 0.00 0.00 0.00 68 1005.0
20260505073723 18 63 0.0 4.8 0.00 0.00 0.00 68 1005.1
20260505073442 18 63 1.6 4.8 0.00 0.00 0.00 67 1005.2
20260505072935 18 273 1.6 4.8 0.00 0.00 0.00 67 1005.3
20260505072210 18 317 0.0 3.2 0.00 0.00 0.00 66 1005.3
20260505071704 18 198 0.0 3.2 0.00 0.00 0.00 65 1005.3
20260505071158 18 194 1.6 8.0 0.00 0.00 0.00 64 1005.3
20260505070652 18 340 3.2 11.3 0.00 0.00 0.00 64 1005.5
20260505070146 18 205 3.2 11.3 0.00 0.00 0.00 63 1005.6
20260505065639 18 344 4.8 17.7 0.00 0.00 0.00 62 1005.5
20260505065400 19 155 4.8 17.7 0.00 0.00 0.00 61 1005.6
20260505064628 19 277 4.8 19.3 0.00 0.00 0.00 60 1005.4
20260505064122 20 348 4.8 19.3 0.00 0.00 0.00 59 1005.7
20260505063616 20 257 4.8 25.7 0.00 0.00 0.00 57 1005.6
20260505063110 21 329 6.4 25.7 0.00 0.00 0.00 57 1005.5
20260505062830 21 292 6.4 16.1 0.00 0.00 0.00 61 1005.2
20260505062105 21 187 3.2 14.5 0.00 0.00 0.00 61 1004.0
20260505061604 21 134 3.2 14.5 0.00 0.00 0.00 61 1003.8
20260505061328 21 155 4.8 16.1 0.00 0.00 0.00 61 1003.8
20260505060604 21 199 4.8 16.1 0.00 0.00 0.00 61 1003.7
20260505055604 21 141 4.8 16.1 0.00 0.00 0.00 60 1003.5
20260505055104 21 159 3.2 19.3 0.00 0.00 0.00 60 1003.4
20260505054603 21 139 4.8 19.3 0.00 0.00 0.00 60 1003.4
20260505054104 21 220 4.8 24.1 0.00 0.00 0.00 60 1003.4
20260505053826 21 129 4.8 24.1 0.00 0.00 0.00 59 1003.4
20260505053101 21 333 3.2 14.5 0.00 0.00 0.00 59 1003.4
20260505052600 21 236 4.8 20.9 0.00 0.00 0.00 59 1003.3
20260505052101 21 321 4.8 20.9 0.00 0.00 0.00 58 1003.3
20260505051602 21 193 4.8 17.7 0.00 0.00 0.00 58 1002.9
20260505051101 22 179 4.8 17.7 0.00 0.00 0.00 58 1002.8
20260505050601 22 161 6.4 27.4 0.00 0.00 0.00 57 1002.7
20260505041731 22 137 4.8 17.7 0.00 0.00 0.00 57 1002.5
20260505041001 22 131 4.8 14.5 0.00 0.00 0.00 57 1002.4
20260505040454 22 64 4.8 19.3 0.00 0.00 0.00 57 1002.5
20260505040444 22 121 4.8 19.3 0.00 0.00 0.00 57 1002.7
20260505035703 22 119 4.8 14.5 0.00 0.00 0.00 56 1002.7
20260505034937 22 136 6.4 16.1 0.00 0.00 0.00 56 1002.9
20260505034431 22 148 6.4 16.1 0.00 0.00 0.00 55 1003.0
20260505033925 22 90 4.8 14.5 0.00 0.00 0.00 55 1003.0
20260505033419 22 156 4.8 14.5 0.00 0.00 0.00 55 1003.1
20260505032912 23 146 4.8 14.5 0.00 0.00 0.00 55 1003.0
20260505032406 23 130 4.8 19.3 0.00 0.00 0.00 55 1003.1
20260505031901 23 148 4.8 19.3 0.00 0.00 0.00 54 1003.0
20260505031355 23 146 3.2 14.5 0.00 0.00 0.00 54 1002.9
20260505030849 23 134 3.2 14.5 0.00 0.00 0.00 54 1002.9
20260505030343 23 136 3.2 11.3 0.00 0.00 0.00 54 1003.0
20260505030039 23 147 3.2 11.3 0.00 0.00 0.00 53 1002.9
20260505025928 23 142 3.2 11.3 0.00 0.00 0.00 53 1003.0
20260505024833 23 187 4.8 14.5 0.00 0.00 0.00 53 1002.8
20260505024334 23 169 4.8 14.5 0.00 0.00 0.00 53 1002.7
20260505023832 23 118 3.2 14.5 0.00 0.00 0.00 53 1002.6
20260505023552 23 148 3.2 11.3 0.00 0.00 0.00 53 1002.6
20260505022830 23 80 3.2 9.7 0.00 0.00 0.00 52 1002.5
20260505022332 23 163 4.8 14.5 0.00 0.00 0.00 53 1002.5
20260505021829 23 125 4.8 14.5 0.00 0.00 0.00 53 1002.3
20260505021550 23 155 3.2 12.9 0.00 0.00 0.00 52 1002.2
20260505020828 23 69 3.2 12.9 0.00 0.00 0.00 52 1002.0
20260505020328 24 88 3.2 12.9 0.00 0.00 0.00 52 1002.0
20260505015827 24 116 4.8 12.9 0.00 0.00 0.00 52 1002.0
20260505015326 23 124 4.8 12.9 0.00 0.00 0.00 52 1001.9
20260505014826 23 127 4.8 14.5 0.00 0.00 0.00 52 1001.8
20260505014325 23 143 4.8 14.5 0.00 0.00 0.00 53 1001.7
20260505013823 23 97 3.2 12.9 0.00 0.00 0.00 53 1001.7
20260505013323 23 138 3.2 14.5 0.00 0.00 0.00 53 1001.7
20260505012821 23 137 3.2 14.5 0.00 0.00 0.00 53 1001.6
20260505012317 23 132 3.2 9.7 0.00 0.00 0.00 53 1001.5
20260505011818 23 103 1.6 9.7 0.00 0.00 0.00 53 1001.5
20260505011318 23 162 1.6 6.4 0.00 0.00 0.00 53 1001.4
20260505010819 24 92 1.6 6.4 0.00 0.00 0.00 53 1001.5
20260505010318 24 142 1.6 8.0 0.00 0.00 0.00 53 1001.4
20260505010046 24 145 3.2 11.3 0.00 0.00 0.00 53 1001.4
20260505005543 24 134 3.2 11.3 0.00 0.00 0.00 52 1001.4
20260505004817 24 88 3.2 11.3 0.00 0.00 0.00 52 1001.3
20260505004318 25 137 3.2 8.0 0.00 0.00 0.00 52 1001.2
20260505003819 25 113 3.2 11.3 0.00 0.00 0.00 51 1001.2
20260505003537 25 141 3.2 11.3 0.00 0.00 0.00 51 1001.1
20260505002814 25 149 3.2 8.0 0.00 0.00 0.00 50 1001.1
20260505002315 25 163 3.2 12.9 0.00 0.00 0.00 50 1001.1
20260505001813 25 163 3.2 12.9 0.00 0.00 0.00 51 1001.0
20260505001315 25 89 3.2 19.3 0.00 0.00 0.00 50 1001.1
20260505001035 25 173 3.2 19.3 0.00 0.00 0.00 50 1001.1
20260505000314 26 142 1.6 9.7 0.00 0.00 0.00 50 1001.0
20260504235815 26 167 3.2 12.9 0.00 0.00 0.00 49 1001.0
20260504235314 26 149 3.2 12.9 0.00 0.00 0.00 49 1001.0
20260504234809 26 159 3.2 9.7 0.00 0.00 0.00 49 1001.1
20260504234308 26 134 3.2 12.9 0.00 0.00 0.00 48 1001.0
20260504233805 26 166 4.8 14.5 0.00 0.00 0.00 49 1001.1
20260504233304 26 147 4.8 16.1 0.00 0.00 0.00 48 1001.1
20260504232803 26 131 6.4 17.7 0.00 0.00 0.00 47 1001.1
20260504232304 26 146 4.8 17.7 0.00 0.00 0.00 47 1001.2
20260504232248 26 153 4.8 17.7 0.00 0.00 0.00 48 1001.3
20260504231304 26 109 4.8 19.3 0.00 0.00 0.00 47 1001.3
20260504230803 26 131 4.8 19.3 0.00 0.00 0.00 47 1001.4
20260504230304 26 142 6.4 19.3 0.00 0.00 0.00 46 1001.4
20260504225802 26 96 4.8 19.3 0.00 0.00 0.00 47 1001.4
20260504225300 26 145 4.8 19.3 0.00 0.00 0.00 46 1001.5
20260504224759 27 65 4.8 20.9 0.00 0.00 0.00 46 1001.4
20260504224259 26 129 3.2 20.9 0.00 0.00 0.00 47 1001.5
20260504223758 26 130 4.8 16.1 0.00 0.00 0.00 47 1001.5
20260504223257 27 148 4.8 16.1 0.00 0.00 0.00 47 1001.7
20260504222758 27 138 4.8 12.9 0.00 0.00 0.00 46 1001.7
20260504222258 27 113 4.8 16.1 0.00 0.00 0.00 46 1001.8
20260504221752 27 205 4.8 17.7 0.00 0.00 0.00 45 1001.8
20260504221245 27 174 3.2 17.7 0.00 0.00 0.00 48 1001.7
20260504220739 27 155 3.2 12.9 0.00 0.00 0.00 48 1001.7
20260504220235 27 119 3.2 12.9 0.00 0.00 0.00 48 1001.8
20260504215728 27 142 4.8 14.5 0.00 0.00 0.00 48 1001.7
20260504215439 27 101 4.8 14.5 0.00 0.00 0.00 47 1001.8
20260504214716 27 270 4.8 14.5 0.00 0.00 0.00 48 1001.7
20260504214209 27 93 4.8 14.5 0.00 0.00 0.00 48 1001.8
20260504213703 27 81 4.8 14.5 0.00 0.00 0.00 50 1001.9
20260504213157 27 196 4.8 17.7 0.00 0.00 0.00 50 1001.8
20260504212652 26 155 6.4 19.3 0.00 0.00 0.00 50 1001.9
20260504212146 26 49 8.0 20.9 0.00 0.00 0.00 52 1001.9
20260504211908 26 174 6.4 20.9 0.00 0.00 0.00 53 1002.0
20260504211134 26 144 6.4 19.3 0.00 0.00 0.00 55 1002.0
20260504210851 26 96 6.4 19.3 0.00 0.00 0.00 57 1002.0
20260504210343 26 142 6.4 16.1 0.00 0.00 0.00 58 1002.0
20260504205841 25 100 4.8 12.9 0.00 0.00 0.00 59 1001.9
20260504205109 25 138 4.8 12.9 0.00 0.00 0.00 61 1002.0
20260504204604 25 322 6.4 17.7 0.00 0.00 0.00 61 1002.1
20260504204058 25 98 6.4 17.7 0.00 0.00 0.00 60 1002.3
20260504203551 25 96 4.8 16.1 0.00 0.00 0.00 59 1002.4
20260504203046 25 98 4.8 16.1 0.00 0.00 0.00 59 1002.4
20260504202540 25 78 4.8 14.5 0.00 0.00 0.00 61 1002.6
20260504202034 25 160 4.8 16.1 0.00 0.00 0.00 59 1002.5
20260504201528 24 120 6.4 16.1 0.00 0.00 0.00 59 1002.5
20260504201022 24 106 6.4 17.7 0.00 0.00 0.00 60 1002.6
20260504200737 23 113 4.8 17.7 0.00 0.00 0.00 61 1002.7
20260504200009 23 150 6.4 17.7 0.00 0.00 0.00 62 1003.0
20260504195504 23 113 6.4 17.7 0.00 0.00 0.00 63 1002.8
20260504194958 23 144 4.8 16.1 0.00 0.00 0.00 64 1002.9
20260504194452 22 88 4.8 16.1 0.00 0.00 0.00 65 1003.0
20260504193946 22 144 6.4 16.1 0.00 0.00 0.00 63 1003.0
20260504193440 22 116 6.4 16.1 0.00 0.00 0.00 65 1003.1
20260504192934 22 113 6.4 19.3 0.00 0.00 0.00 67 1003.2
20260504192428 21 105 6.4 20.9 0.00 0.00 0.00 68 1003.3
20260504191921 21 82 4.8 20.9 0.00 0.00 0.00 68 1003.3
20260504191415 20 127 4.8 12.9 0.00 0.00 0.00 73 1003.5
20260504190910 20 122 4.8 14.5 0.00 0.00 0.00 75 1003.2
20260504190404 18 0 4.8 14.5 0.00 0.00 0.00 75 1003.0
20260504190346 18 65 4.8 14.5 0.00 0.00 0.00 75 1003.1
20260504185352 18 80 4.8 16.1 0.00 0.00 0.00 75 1002.8
20260504184846 18 72 6.4 17.7 0.00 0.00 0.00 75 1003.0
20260504184340 18 58 4.8 17.7 0.00 0.00 0.00 74 1003.5
20260504183834 18 115 6.4 14.5 0.00 0.00 0.00 72 1004.2
20260504183328 19 146 6.4 14.5 0.00 0.00 0.00 71 1004.2
20260504183040 19 70 4.8 14.5 0.00 0.00 0.00 70 1004.3
20260504182317 19 102 4.8 11.3 0.00 0.00 0.00 70 1004.5
20260504181809 19 88 4.8 14.5 0.00 0.00 0.00 71 1004.5
20260504181307 19 88 4.8 14.5 0.00 0.00 0.00 72 1004.3
20260504180807 18 153 4.8 11.3 0.00 0.00 0.00 73 1004.1
20260504180306 18 146 3.2 11.3 0.00 0.00 0.00 72 1004.3
20260504175806 18 138 3.2 9.7 0.00 0.00 0.00 73 1004.3
20260504175306 18 116 3.2 9.7 0.00 0.00 0.00 73 1004.3
20260504175026 18 57 3.2 11.3 0.00 0.00 0.00 73 1004.2
20260504174306 18 140 3.2 11.3 0.00 0.00 0.00 75 1004.3
20260504173806 18 96 3.2 9.7 0.00 0.00 0.00 75 1004.5
20260504173523 18 88 4.8 12.9 0.00 0.00 0.00 73 1004.7
20260504172805 18 88 4.8 14.5 0.00 0.00 0.00 72 1004.7
20260504172306 18 69 3.2 14.5 0.00 0.00 0.00 71 1004.8
20260504171805 18 80 3.2 12.9 0.00 0.00 0.00 70 1004.9
20260504171305 18 112 4.8 12.9 0.00 0.00 0.00 71 1004.9
20260504170806 18 115 3.2 11.3 0.00 0.00 0.00 72 1004.8
20260504170301 17 130 3.2 11.3 0.00 0.00 0.00 72 1004.9
20260504160258 18 101 4.8 17.7 0.00 0.00 0.00 66 1005.2
20260504150750 18 152 3.2 12.9 0.00 0.00 0.00 62 1006.2
20260504150251 18 103 3.2 11.3 0.00 0.00 0.00 61 1006.3
20260504141014 20 154 4.8 20.9 0.00 0.00 0.00 59 1006.4
20260504140238 20 141 6.4 20.9 0.00 0.00 0.00 59 1006.3
20260504130631 17 199 4.8 12.9 0.00 0.00 0.00 68 1007.0
20260504130125 17 92 4.8 14.5 0.00 0.00 0.00 68 1007.1